Regional Weather Roundup
Issued by NWS Glasgow, MT

Home | Current Version | Previous Version | Text Only | Print | Product List | Glossary On
Versions: 1 2 3 4 5 6 7 8 9 10 11 12 13 14 15 16 17 18 19 20 21 22 23 24 25 26 27
000
ASUS45 KGGW 230915
RWRGGW
HOURLY WEATHER ROUNDUP FOR NORTHEAST MONTANA
NATIONAL WEATHER SERVICE GLASGOW MONTANA
300 AM MDT THU OCT 23 2014

NOTE: "FAIR" INDICATES FEW OR NO CLOUDS BELOW 12,000 FEET WITH NO
SIGNIFICANT WEATHER AND/OR OBSTRUCTIONS TO VISISBILITY.

NORTHEAST MONTANA


CITY           SKY/WX    TMP DP  RH WIND       PRES   REMARKS
GLASGOW        CLEAR     38  32  79 SE9       29.82S
PLENTYWOOD       N/A     38  32  79 SE2         N/A
WOLF POINT     CLEAR     29  25  85 NE3       29.85F
JORDAN           N/A     28  23  81 CALM      29.86S
WINNETT          N/A     29  29 100 W2          N/A
SIDNEY         CLEAR     34  28  80 S6        29.88F
GLENDIVE       CLEAR     30  25  80 S7        29.90S
MALTA            N/A     42  32  67 NW2         N/A
SCOBEY           N/A     35  25  67 CALM      29.81F

FORT PECK REPORTS


CITY           SKY/WX    TMP DP  RH WIND       PRES   REMARKS
FORT PECK        N/A     48  36  63 SE13        N/A
THE PINES        N/A     50  33  52 SW9         N/A

SOUTHEAST MONTANA


CITY           SKY/WX    TMP DP  RH WIND       PRES   REMARKS
BILLINGS       PTCLDY    46  23  40 SW8       29.93S
MILES CITY     CLEAR     38  27  64 S10       29.91F
BAKER          CLEAR     45  28  51 W9        29.92S
LIVINGSTON     MOCLDY    52  24  33 SW28G46   29.94F

CENTRAL MONTANA


CITY           SKY/WX    TMP DP  RH WIND       PRES   REMARKS
HAVRE          PTCLDY    51  35  54 SW15      29.75S
LEWISTOWN      CLEAR     53  27  36 SW22      29.87F
GREAT FALLS    CLOUDY    51  31  46 S20       29.81S
CUT BANK       CLOUDY    50  34  54 VRB3      29.76R
HELENA         MOCLDY    56  29  35 SW16G24   29.90R
BUTTE          CLOUDY    43  29  57 E3        30.01R
BOZEMAN        CLOUDY    39  30  70 SW3       29.99S

WESTERN MONTANA


CITY           SKY/WX    TMP DP  RH WIND       PRES   REMARKS
MISSOULA       CLOUDY    54  38  54 N6        29.90F
KALISPELL      NOT AVBL

NORTH DAKOTA


CITY           SKY/WX    TMP DP  RH WIND       PRES   REMARKS
WILLISTON      CLEAR     38  32  79 SW5       29.87S
DICKINSON      CLEAR     39  28  64 SW8       29.89S
MINOT          CLEAR     46  34  62 SW13      29.83S
BISMARCK       CLEAR     36  31  82 CALM      29.92S

SOUTHERN SASKATCHEWAN


CITY           SKY/WX    TMP DP  RH WIND       PRES   REMARKS
REGINA         CLEAR     34  32  93 VRB3      29.77F
ESTEVAN        PTCLDY    37  34  87 SW10      29.82R
SWIFT CURRENT  CLEAR     39  36  87 S9        29.72F




USA.gov is the U.S. government's official web portal to all federal, state and local government web resources and services.